Wind_Speed
11 11 9 9 9 16 18 14 11 9 10 9 9 9 10 8 6 2 1 4 6 8 12 14 15 14 14 17 21 24 25 26 25 24 26 26 28 31
10 11 10 7 9 12 16 15 13 11 10 8 8 9 10 9 7 5 5 5 9 10 12 14 15 15 14 15 18 21 24 26 26 24 24 25 27 29
12 12 11 10 9 9 11 13 13 13 11 9 8 8 10 10 10 8 9 10 8 12 12 15 15 15 14 13 15 19 22 25 28 27 24 23 24 27
13 13 12 11 10 11 12 11 11 12 12 11 10 10 9 11 12 11 14 14 15 13 13 15 17 16 14 13 14 16 20 23 25 25 23 22 22 23
15 15 14 13 12 12 11 11 12 12 12 13 13 12 12 12 14 14 16 17 19 19 14 15 17 18 15 14 15 14 18 19 20 24 21 20 19 20
14 14 14 15 14 14 14 13 14 14 15 16 16 17 17 17 18 18 18 20 20 24 24 17 13 17 18 13 14 14 16 17 18 21 22 19 17 17
12 13 15 15 16 16 17 17 17 17 17 19 19 20 21 20 21 20 20 21 23 24 25 25 16 13 15 17 14 15 14 16 17 19 21 22 19 15
12 11 10 10 13 15 16 17 18 20 21 21 22 23 24 24 24 22 23 23 23 29 26 25 24 19 12 15 15 16 15 16 16 18 19 21 22 18
17 16 14 13 13 13 14 13 13 15 18 20 21 24 24 25 23 23 21 21 22 23 22 22 23 25 18 19 17 16 17 18 18 18 19 20 21 21
22 21 19 18 18 18 18 17 17 15 16 16 17 20 18 19 18 17 18 20 19 20 20 21 22 23 21 19 22 19 19 19 19 19 20 21 23 24
25 25 23 23 23 23 23 22 23 21 22 21 17 16 15 15 15 16 19 18 19 21 21 21 23 23 23 21 24 26 24 23 22 23 23 22 21 21
30 29 28 27 28 29 27 28 25 27 28 25 21 20 19 19 22 21 22 21 19 18 24 23 25 26 24 23 22 26 28 27 27 28 28 26 23 22
35 33 32 32 32 32 31 29 26 30 29 27 24 22 24 26 26 26 25 24 24 23 26 26 28 30 31 30 31 25 25 29 32 31 30 30 28 28
39 38 38 39 37 37 36 31 30 31 30 27 25 25 26 27 29 28 27 27 28 26 27 29 29 32 33 32 33 36 28 30 30 34 34 36 33 33
43 41 42 42 41 40 39 37 35 33 30 29 29 28 30 30 30 31 31 28 27 29 31 32 33 35 35 35 35 35 34 31 31 32 35 33 34 36
44 43 44 46 45 42 39 39 40 38 35 33 32 33 34 34 33 33 33 33 33 31 30 31 32 34 34 35 34 34 36 32 31 28 31 39 34 36
42 44 46 45 44 43 42 41 42 42 41 38 37 35 36 36 34 35 35 35 35 34 35 37 34 32 31 34 33 33 34 34 36 33 30 37 39 40
37 37 36 39 40 40 41 44 45 44 44 44 42 38 36 37 36 36 36 36 37 36 36 37 37 33 31 33 34 35 36 36 38 40 36 36 39 41
42 39 35 30 31 34 37 38 39 42 46 47 45 41 40 40 40 38 39 38 37 35 35 36 36 37 34 31 34 33 35 36 41 47 44 42 44 40
44 41 37 36 37 38 38 39 39 41 43 44 45 43 41 40 39 36 34 31 29 28 28 29 31 31 31 30 31 34 33 37 41 45 46 41 36 37
52 50 44 41 41 42 39 37 37 39 40 41 42 43 41 39 36 31 30 31 30 28 27 29 33 33 35 36 34 35 39 32 36 39 35 35 34 36
55 53 51 50 49 46 44 43 42 41 41 40 40 41 39 37 35 35 33 33 33 34 33 33 37 38 36 39 41 42 42 37 35 33 36 41 44 42
61 57 55 56 54 50 50 48 49 46 44 45 43 43 44 44 42 42 41 41 38 39 39 38 39 39 39 41 46 47 47 43 39 38 39 42 43 43
Wind_Direction
190 185 184 179 171 175 179 182 182 185 180 178 178 178 183 194 210 211 359 344 350 350 356 359 4 6 7 16 16 13 12 16 15 10 14 15 18 19
196 191 185 183 183 178 184 188 184 189 192 194 192 188 193 208 229 250 276 311 328 334 345 345 350 354 353 3 8 8 11 14 13 9 9 12 16 19
195 195 193 191 191 191 192 196 197 201 206 209 217 211 209 219 238 260 283 300 316 324 329 333 340 344 339 344 354 358 5 12 11 8 6 7 13 16
204 204 206 205 205 202 204 205 211 216 223 231 235 236 238 238 251 266 282 299 311 315 327 326 331 337 330 325 335 344 352 3 8 7 6 3 8 12
207 212 215 222 225 223 224 226 234 239 241 245 248 246 249 249 259 270 282 293 304 308 316 319 318 326 329 320 318 331 344 350 2 4 2 359 1 5
214 216 220 226 231 236 238 238 241 247 253 257 260 260 258 258 264 272 282 289 296 302 307 309 304 310 319 317 322 328 335 341 347 357 356 353 352 354
216 217 225 229 236 239 242 244 248 251 255 260 264 267 269 273 273 278 283 287 295 293 295 301 301 297 300 315 313 318 324 328 335 343 345 348 344 343
232 231 237 238 237 243 249 251 254 257 258 257 263 268 271 272 274 281 285 289 291 290 293 298 301 303 292 295 301 307 317 316 320 330 335 338 341 337
240 240 241 241 246 249 252 255 255 259 265 266 266 268 271 275 282 288 289 288 287 290 292 293 291 293 299 298 300 297 303 309 315 318 325 329 333 335
242 244 246 250 253 255 255 259 263 263 265 271 272 275 281 284 284 280 283 283 291 297 301 303 300 296 297 290 295 298 299 301 307 314 320 326 327 327
244 246 248 253 258 261 264 261 260 263 265 270 271 278 284 283 281 281 282 286 294 296 296 298 300 306 306 299 290 297 297 294 296 299 304 311 318 319
245 250 251 251 252 256 257 258 258 260 262 266 266 273 274 277 280 279 282 291 296 295 295 299 304 303 304 302 298 294 297 299 298 299 301 301 302 307
244 246 251 253 255 259 261 263 261 260 264 269 273 271 272 275 274 277 281 284 287 291 291 297 297 297 299 300 301 298 296 291 295 295 294 296 300 303
241 245 248 251 253 257 261 262 263 261 264 268 269 269 270 271 272 274 274 280 286 291 293 294 295 294 295 297 296 300 300 294 291 292 298 300 302 300
245 244 246 249 251 253 257 261 260 261 263 263 265 266 268 269 272 277 281 282 279 285 289 290 292 291 293 294 297 300 302 299 300 299 298 295 292 294
249 248 249 249 249 252 254 260 263 265 263 261 261 262 264 268 273 279 283 286 289 291 288 290 290 288 289 291 294 296 296 299 299 300 301 297 298 306
249 252 254 255 256 256 254 252 257 260 263 262 260 261 265 270 273 276 279 283 286 287 287 287 284 285 289 289 291 290 291 295 295 299 298 298 297 299
249 254 253 252 254 255 255 255 256 258 259 260 261 261 265 268 269 272 277 280 282 285 286 286 287 288 285 288 291 288 290 291 293 293 292 292 294 299
246 251 251 251 257 257 257 256 259 259 256 258 258 260 262 265 268 271 275 277 279 282 285 287 289 288 287 286 283 288 296 293 293 291 283 283 290 295
246 245 245 250 250 254 259 260 260 259 257 255 257 258 259 261 263 266 269 272 277 281 285 286 289 293 295 297 292 294 294 299 302 302 293 282 282 284
243 243 244 244 248 251 255 259 261 257 256 256 257 258 257 259 259 261 266 269 270 274 280 283 285 290 295 293 300 299 300 307 307 308 304 297 284 284
242 243 244 246 247 249 249 253 259 264 262 257 256 256 255 254 257 259 263 261 267 273 275 277 282 287 292 296 299 301 297 299 300 308 302 292 292 288
244 244 241 244 246 251 253 262 264 259 263 262 256 254 256 256 256 256 260 264 263 267 274 277 280 285 289 291 295 299 297 294 294 297 295 282 286 289
Height
5969 5971 5973 5974 5976 5978 5979 5981 5983 5984 5986 5987 5988 5988 5989 5988 5988 5989 5988 5986 5985 5983 5980 5978 5976 5974 5970 5967 5964 5960 5955 5950 5946 5942 5938 5934 5929 5924
5969 5971 5973 5974 5975 5977 5979 5981 5982 5984 5986 5988 5988 5989 5989 5989 5989 5988 5988 5986 5984 5982 5981 5978 5976 5973 5971 5968 5965 5961 5956 5951 5947 5943 5940 5936 5932 5927
5968 5971 5972 5973 5976 5977 5979 5981 5981 5982 5984 5986 5987 5988 5988 5988 5987 5988 5986 5985 5985 5982 5981 5977 5975 5973 5970 5968 5965 5961 5957 5953 5949 5945 5941 5937 5934 5929
5967 5969 5971 5973 5975 5976 5978 5980 5982 5983 5984 5984 5985 5986 5987 5987 5986 5986 5985 5983 5983 5981 5980 5977 5975 5973 5970 5967 5965 5961 5957 5954 5949 5945 5941 5938 5935 5931
5965 5967 5970 5971 5973 5974 5976 5978 5980 5981 5983 5982 5983 5984 5984 5985 5983 5983 5982 5981 5979 5978 5979 5976 5973 5971 5969 5966 5963 5960 5958 5954 5949 5945 5941 5938 5936 5932
5964 5966 5968 5969 5971 5971 5973 5975 5976 5977 5978 5979 5980 5980 5980 5981 5980 5980 5979 5978 5978 5974 5972 5973 5972 5970 5966 5964 5962 5960 5957 5953 5949 5945 5941 5938 5935 5932
5964 5964 5966 5967 5968 5969 5970 5971 5973 5974 5974 5975 5975 5976 5976 5977 5976 5977 5976 5974 5974 5972 5969 5966 5966 5967 5965 5962 5960 5957 5955 5952 5949 5944 5940 5937 5934 5931
5962 5963 5964 5966 5966 5967 5968 5968 5969 5970 5971 5971 5970 5971 5971 5971 5971 5972 5971 5970 5969 5963 5963 5963 5961 5959 5961 5959 5957 5954 5952 5950 5947 5943 5939 5935 5932 5931
5959 5960 5962 5963 5964 5964 5965 5965 5966 5966 5967 5967 5967 5965 5966 5966 5967 5966 5965 5964 5962 5960 5959 5958 5956 5953 5954 5953 5952 5951 5949 5947 5945 5941 5938 5934 5931 5928
5955 5957 5958 5959 5960 5960 5961 5962 5963 5963 5963 5963 5963 5962 5962 5961 5961 5960 5960 5959 5958 5957 5954 5952 5951 5950 5949 5949 5947 5946 5945 5943 5941 5939 5935 5932 5929 5926
5948 5950 5952 5954 5955 5955 5955 5957 5957 5958 5958 5958 5960 5960 5959 5957 5956 5956 5954 5955 5955 5953 5951 5950 5947 5946 5944 5945 5941 5941 5940 5938 5935 5934 5931 5928 5926 5923
5940 5942 5945 5946 5947 5947 5948 5948 5951 5951 5951 5952 5955 5955 5955 5954 5952 5950 5950 5951 5949 5949 5946 5946 5944 5941 5940 5939 5939 5934 5932 5932 5930 5928 5925 5923 5920 5918
5931 5934 5937 5938 5938 5939 5940 5942 5944 5943 5944 5945 5947 5948 5948 5947 5946 5944 5944 5944 5943 5943 5941 5940 5939 5936 5934 5932 5929 5931 5928 5925 5922 5920 5919 5917 5915 5912
5921 5924 5926 5927 5929 5930 5932 5935 5936 5935 5936 5938 5938 5939 5939 5938 5937 5937 5938 5938 5936 5936 5934 5933 5932 5929 5927 5925 5923 5919 5923 5921 5919 5915 5914 5910 5908 5906
5910 5912 5914 5917 5920 5921 5922 5924 5925 5926 5929 5930 5931 5931 5929 5929 5928 5929 5929 5929 5931 5930 5927 5925 5923 5921 5918 5916 5915 5913 5911 5911 5911 5909 5906 5905 5902 5899
5897 5899 5902 5904 5908 5912 5915 5916 5916 5917 5918 5920 5921 5922 5921 5921 5921 5921 5920 5920 5918 5920 5920 5917 5914 5911 5910 5907 5905 5904 5901 5901 5899 5900 5897 5892 5893 5890
5883 5887 5891 5895 5898 5900 5902 5904 5903 5906 5907 5909 5910 5911 5911 5911 5913 5910 5909 5909 5908 5909 5908 5906 5906 5904 5902 5898 5896 5893 5892 5890 5887 5887 5887 5882 5881 5881
5872 5875 5881 5883 5886 5889 5890 5891 5891 5893 5896 5897 5899 5900 5901 5901 5901 5901 5899 5898 5897 5897 5896 5894 5893 5894 5894 5890 5887 5885 5882 5880 5877 5874 5875 5872 5869 5868
5864 5867 5870 5874 5876 5878 5879 5879 5881 5882 5882 5884 5887 5889 5889 5889 5889 5889 5888 5887 5887 5886 5885 5883 5882 5879 5880 5883 5878 5877 5875 5870 5865 5861 5860 5859 5858 5856
5852 5856 5860 5863 5865 5866 5868 5869 5869 5870 5870 5872 5874 5876 5877 5878 5878 5877 5877 5876 5875 5875 5875 5875 5873 5872 5870 5869 5869 5865 5866 5861 5855 5850 5845 5846 5846 5844
5838 5844 5848 5850 5851 5853 5856 5857 5857 5858 5858 5860 5863 5864 5866 5866 5867 5866 5866 5866 5865 5865 5866 5865 5864 5863 5861 5859 5859 5856 5852 5852 5845 5839 5837 5835 5834 5834
5823 5829 5834 5837 5839 5841 5842 5845 5846 5846 5847 5848 5850 5852 5854 5853 5855 5855 5855 5855 5855 5855 5856 5855 5854 5853 5852 5849 5848 5846 5843 5844 5839 5834 5830 5826 5825 5822
5807 5813 5819 5822 5825 5827 5830 5832 5834 5835 5836 5837 5838 5839 5840 5841 5842 5842 5843 5843 5843 5843 5843 5843 5843 5842 5840 5838 5835 5832 5828 5830 5830 5825 5823 5819 5817 5814